Regional Weather Roundup
Issued by NWS

Home | Current Version | Previous Version | Graphics & Text | Print | Product List | Glossary On
Versions: 1 2 3 4 5 6 7 8 9 10 11 12 13 14 15 16 17 18 19 20 21 22 23 24 25 26 27 28 29 30 31 32 33 34 35 36 37 38 39 40 41 42 43 44 45 46 47 48 49 50
000
ASUS43 KIND 271709
RWRIN

WEATHER ROUNDUP FOR INDIANA
NATIONAL WEATHER SERVICE INDIANAPOLIS IN
100 PM EDT MON MAR 27 2017

NOTE: "FAIR" INDICATES FEW OR NO CLOUDS BELOW 12,000 FEET WITH NO
SIGNIFICANT WEATHER AND/OR OBSTRUCTIONS TO VISIBILITY.

* - STATION DOES NOT REPORT WEATHER SUCH AS PRECIPITATION OR FOG.

+ - STATION NOT QUALITY CONTROLLED BY THE NATIONAL WEATHER SERVICE.
    USE DATA WITH CAUTION...ESPECIALLY DEWPOINT AND RELATIVE
    HUMIDITY OBSERVATIONS.

INZ001>003-010>013-019-020-271800-
NORTHWEST INDIANA

CITY           SKY/WX    TMP DP  RH WIND       PRES   REMARKS
GARY /AIRPORT/ CLOUDY    46  43  87 NE9       29.96F FOG
KNOX *+        CLOUDY    52  34  50 S6        29.95S
LA PORTE +     CLOUDY    52  48  88 CALM      29.95S
MICHIGAN CITY+ CLOUDY    50  50 100 CALM      29.96S
MONTICELLO +   CLOUDY    56  49  80 S3        29.94S
RENSSELAER +   CLOUDY    55  50  82 CALM      29.95S
VALPARAISO     CLOUDY    53  50  89 S6        29.95S

$$

LMZ046-743>745-271800-
SOUTHERN LAKE MICHIGAN

STATION/POSITION TIME  TEMP    WIND        PRES    WAVE
                       AIR SEA DIR/SP/G            HT
                 (UTC) (F)     (DEG/KT/KT) (MB)    (FT)
BURNS HARBOR     1600   42      50/  8/ 11 1015.2
MICHIGAN CITY    1630   40      30/  8/  8   N/A

$$

INZ004-005-014>016-021>024-271800-
NORTH CENTRAL INDIANA

CITY           SKY/WX    TMP DP  RH WIND       PRES   REMARKS
ELKHART        PTSUNNY   55  48  76 CALM      29.93F
GOSHEN         CLOUDY    56  47  71 S6        29.93F
LOGANSPORT +   CLOUDY    55  50  82 SE5       29.96S
PERU/GRISSOM   CLOUDY    57  54  87 CALM      29.94S
ROCHESTER +    CLOUDY    57  50  77 S3        29.95F
SOUTH BEND     CLOUDY    52  49  89 CALM      29.94F
WARSAW +       CLOUDY    54  46  76 SW6       29.94F

$$

INZ006>009-017-018-025>027-271800-
NORTHEAST INDIANA

CITY           SKY/WX    TMP DP  RH WIND       PRES   REMARKS
AUBURN +       CLOUDY    55  46  71 SW3       29.95F
FORT WAYNE     CLOUDY    57  48  72 SW6       29.96S
HUNTINGTON +   CLOUDY    56  50  80 SW5       29.95F

$$

INZ028-029-035-036-043>045-051>053-271800-
WEST CENTRAL INDIANA

CITY           SKY/WX    TMP DP  RH WIND       PRES   REMARKS
CRAWFORDSVL +  CLOUDY    58  52  79 SE8       29.94F
GREENCASTLE +  CLOUDY    61  50  67 SE12      29.95F
LAFAYETTE      LGT RAIN  56  52  86 S7        29.95S
TERRE HAUTE    CLOUDY    59  49  69 E17       29.87F

$$

INZ030>032-037>040-046>048-054>057-064-065-271800-
CENTRAL INDIANA

CITY           SKY/WX    TMP DP  RH WIND       PRES   REMARKS
ANDERSON       PTSUNNY   61  52  72 S6        29.97R
CP ATTERBURY + PTSUNNY   61  50  67 S8        29.97F
COLUMBUS       CLOUDY    59  52  77 S10       29.98F
FRANKFORT +    CLOUDY    61  54  78 S6        29.97R
GREENWOOD *+   PTSUNNY   62  52  71 SE9       29.97F
INDIANAPOLIS   PTSUNNY   63  51  65 S10       29.95S
-EAGLE CREEK   PTSUNNY   62  49  62 S9        29.95R
KOKOMO +       CLOUDY    58  52  80 SE7       29.96S
MARION +       CLOUDY    57  51  78 SW5       29.96S
MT COMFORT *+  CLOUDY    61  52  72 S13       29.97R
SHELBYVILLE    PTSUNNY   63  50  62 S15       29.96F
ZIONSVILLE +   CLOUDY    60  51  73 S12       29.96R

$$

INZ033-034-041-042-049-050-058-059-271800-
EAST CENTRAL INDIANA

CITY           SKY/WX    TMP DP  RH WIND       PRES   REMARKS
MUNCIE         MOSUNNY   61  50  67 S5        29.95F
RICHMOND +     CLOUDY    59  50  72 S8        29.99S

$$

INZ060-061-067>069-081>083-085>088-271800-
SOUTHWEST INDIANA

CITY           SKY/WX    TMP DP  RH WIND       PRES   REMARKS
EVANSVILLE     CLOUDY    62  56  80 SE9       29.90S
HUNTINGBURG *+ CLOUDY    57  54  89 SE7       29.91S
WASHINGTON +   CLOUDY    58  54  86 CALM      29.89R

$$

INZ062-063-066-070>080-084-089>092-271800-
SOUTH CENTRAL AND SOUTHEAST INDIANA

CITY           SKY/WX    TMP DP  RH WIND       PRES   REMARKS
BEDFORD +      DRIZZLE   57  52  82 NE9       29.91F
BLOOMINGTON    LGT RAIN  59  49  69 E12       29.89F
MADISON *+     CLOUDY    61  52  72 E6        29.97F
NORTH VERNON + CLOUDY    61  48  63 SE7       30.00R
SEYMOUR +      DRIZZLE   59  52  77 E8        29.93F

$$




USA.gov is the U.S. government's official web portal to all federal, state and local government web resources and services.